Regional Weather Roundup
Issued by NWS Midland/Odessa, TX

Home | Current Version | Previous Version | Text Only | Print | Product List | Glossary On
Versions: 1 2 3 4 5 6 7 8 9 10 11 12 13 14 15 16 17 18 19 20 21 22 23 24 25 26 27 28 29 30 31 32 33 34 35 36 37 38 39 40 41 42 43 44 45 46 47 48 49 50
000
ASUS44 KMAF 200402
RWRMAF
MIDLAND AREA WEATHER ROUNDUP
NATIONAL WEATHER SERVICE MIDLAND TX
1100 PM CDT SAT APR 19 2014

...IN SOUTHWEST TEXAS AND SOUTHEAST NEW MEXICO...

CITY           SKY/WX    TMP DP  RH WIND       PRES   REMARKS
ALPINE         MOCLDY    55  53  94 N10       30.18R
ANDREWS        RAIN      58  57  96 S13       30.17S
ARTESIA        CLEAR     54  50  87 SE10      30.10R
BIG SPRING     CLOUDY    64  57  79 S6        30.14S
CARLSBAD       MOCLDY    60  57  89 CALM      30.11R
DRYDEN           N/A     72  51  47 NE14      30.03R
FORT STOCKTON  LGT RAIN  61  56  83 E10       30.10R
GUAD PASS      CLOUDY    53  46  77 NE21      30.17R
HOBBS          CLOUDY    57  55  94 E7        30.12F
MARFA          CLOUDY    55  52  88 NW17      30.16R
MIDLAND AIRPK  LGT RAIN  63  59  87 SW5       30.16R
MIDLAND INTL   LGT RAIN  61  58  90 N3        30.13R
ODESSA         CLOUDY    61  58  90 E8        30.11F
PECOS          CLOUDY    60  58  90 E5        30.11R
PRESIDIO       CLOUDY    69  54  57 N18G28    30.01R THUNDER
SEMINOLE       LGT RAIN  59  57  92 SE6G24    30.10F
SNYDER         LGT RAIN  64  56  75 SE12      30.12S
WINK           LGT RAIN  61  59  93 SE7       30.09R
$$
...OTHER STATIONS IN TEXAS...

CITY           SKY/WX    TMP DP  RH WIND       PRES   REMARKS
ABILENE        CLOUDY    70  49  47 SE13      30.11R
AMARILLO       CLOUDY    58  46  64 S13       30.08R
AUSTIN         MOCLDY    64  56  75 S9        30.12R
BROWNSVILLE    CLOUDY    71  66  84 SE9       30.09S
CORPUS CHRISTI MOCLDY    69  63  81 SE12      30.09R
DALLAS FTW     MOCLDY    67  53  61 S8        30.12R
DEL RIO        CLOUDY    75  55  49 SE13      30.01R
EL PASO        PTCLDY    57  49  74 N9        30.10R
HOUSTON INT    MOCLDY    66  61  84 S3        30.11S
LUBBOCK        LGT RAIN  59  56  89 S8        30.12R
SAN ANGELO     CLOUDY    73  52  47 S6        30.10R
SAN ANTONIO    MOCLDY    70  56  61 S12       30.12R
WACO           CLEAR     58  54  86 CALM      30.12R
WICHITA FALLS  NOT AVBL
$$
...OTHER LOCATIONS IN NEW MEXICO...

CITY           SKY/WX    TMP DP  RH WIND       PRES   REMARKS
ALAMAGORDO     PTCLDY    50  48  93 SE5       30.10F
ALBUQUERQUE    CLOUDY    54  45  71 E6        30.12F
CANNON AFB     CLOUDY    55  52  89 S9        30.11S
CLOVIS         CLOUDY    54  48  82 SW7       30.14S
HOLLOMAN AFB   MOCLDY    54  49  83 W6        30.10S
ROSWELL        MOCLDY    57  49  74 S8        30.09R
RUIDOSO        MOCLDY    43  39  87 W9        30.19F WCI  37
SANTA FE       CLOUDY    48  42  80 CALM      30.13F
TRUTH OR CONSE CLOUDY    54  48  80 W7        30.12R
TUCUMCARI      MOCLDY    55  50  83 S5        30.06S
$$



USA.gov is the U.S. government's official web portal to all federal, state and local government web resources and services.